UA1ZBE-13 Weather Reports


Display with metric or nautical units.
time (UTC)temp
F
wind
direction
speed
MPH
gust
MPH
rain 1hr
in
rain 24hr
in
rain mn
in
humidity
%
barometer
mb
20260503194514 37 0.0 0.0 0.00 0.00 0.00 981.4
20260503193514 37 0.0 0.0 0.00 0.00 0.00 981.4
20260503192514 37 0.0 0.0 0.00 0.00 0.00 981.4
20260503191513 38 0.0 0.0 0.00 0.00 0.00 981.3
20260503190513 38 0.0 0.0 0.00 0.00 0.00 981.3
20260503185513 38 0.0 0.0 0.00 0.00 0.00 981.2
20260503184513 38 0.0 0.0 0.00 0.00 0.00 981.2
20260503183512 38 0.0 0.0 0.00 0.00 0.00 981.1
20260503182512 39 0.0 0.0 0.00 0.00 0.00 981.2
20260503181512 39 0.0 0.0 0.00 0.00 0.00 981.1
20260503180512 40 0.0 0.0 0.00 0.00 0.00 981.1
20260503175512 41 0.0 0.0 0.00 0.00 0.00 981.1
20260503174511 42 0.0 0.0 0.00 0.00 0.00 981.1
20260503173511 44 0.0 0.0 0.00 0.00 0.00 981.1
20260503172511 44 0.0 0.0 0.00 0.00 0.00 981.2
20260503171511 44 0.0 0.0 0.00 0.00 0.00 981.1
20260503170510 46 0.0 0.0 0.00 0.00 0.00 981.2
20260503150508 62 0.0 0.0 0.00 0.00 0.00 981.2
20260503130505 48 0.0 0.0 0.00 0.00 0.00 980.7
20260503110502 45 0.0 0.0 0.00 0.00 0.00 980.1
20260503090500 42 0.0 0.0 0.00 0.00 0.00 979.2
20260503081459 40 0.0 0.0 0.00 0.00 0.00 978.9
20260503080458 40 0.0 0.0 0.00 0.00 0.00 978.9
20260503072458 39 0.0 0.0 0.00 0.00 0.00 978.8
20260503071457 39 0.0 0.0 0.00 0.00 0.00 978.7
20260503070457 38 0.0 0.0 0.00 0.00 0.00 978.7
20260503054455 38 0.0 0.0 0.00 0.00 0.00 978.5
20260503053455 38 0.0 0.0 0.00 0.00 0.00 978.7
20260503052455 37 0.0 0.0 0.00 0.00 0.00 978.5
20260503051455 36 0.0 0.0 0.00 0.00 0.00 978.5
20260503050454 36 0.0 0.0 0.00 0.00 0.00 978.7
20260503045454 36 0.0 0.0 0.00 0.00 0.00 978.6
20260503044454 36 0.0 0.0 0.00 0.00 0.00 978.6
20260503043454 36 0.0 0.0 0.00 0.00 0.00 978.5
20260503042454 35 0.0 0.0 0.00 0.00 0.00 978.5
20260503041453 35 0.0 0.0 0.00 0.00 0.00 978.5
20260503040453 35 0.0 0.0 0.00 0.00 0.00 978.4
20260503035453 35 0.0 0.0 0.00 0.00 0.00 978.4
20260503034453 35 0.0 0.0 0.00 0.00 0.00 978.4
20260503033452 35 0.0 0.0 0.00 0.00 0.00 978.3
20260503032452 34 0.0 0.0 0.00 0.00 0.00 978.3
20260503031452 34 0.0 0.0 0.00 0.00 0.00 978.2
20260503030452 34 0.0 0.0 0.00 0.00 0.00 978.2
20260503025451 33 0.0 0.0 0.00 0.00 0.00 978.1
20260503024451 33 0.0 0.0 0.00 0.00 0.00 978.0
20260503023451 33 0.0 0.0 0.00 0.00 0.00 978.0
20260503022451 33 0.0 0.0 0.00 0.00 0.00 978.0
20260503021451 33 0.0 0.0 0.00 0.00 0.00 977.9
20260503020450 33 0.0 0.0 0.00 0.00 0.00 977.8
20260503015450 33 0.0 0.0 0.00 0.00 0.00 977.7
20260503014450 33 0.0 0.0 0.00 0.00 0.00 977.8
20260503013450 33 0.0 0.0 0.00 0.00 0.00 977.6
20260503012450 33 0.0 0.0 0.00 0.00 0.00 977.5
20260503011449 33 0.0 0.0 0.00 0.00 0.00 977.5
20260503010449 33 0.0 0.0 0.00 0.00 0.00 977.6
20260503005449 33 0.0 0.0 0.00 0.00 0.00 977.7
20260503004449 33 0.0 0.0 0.00 0.00 0.00 977.5
20260503003449 34 0.0 0.0 0.00 0.00 0.00 977.5
20260503002448 34 0.0 0.0 0.00 0.00 0.00 977.6
20260503001448 34 0.0 0.0 0.00 0.00 0.00 977.5
20260503000448 34 0.0 0.0 0.00 0.00 0.00 977.5
20260502235448 35 0.0 0.0 0.00 0.00 0.00 977.5
20260502234448 35 0.0 0.0 0.00 0.00 0.00 977.5
20260502233447 35 0.0 0.0 0.00 0.00 0.00 977.4
20260502232447 35 0.0 0.0 0.00 0.00 0.00 977.3
20260502231447 35 0.0 0.0 0.00 0.00 0.00 977.2
20260502230447 36 0.0 0.0 0.00 0.00 0.00 977.2
20260502225446 36 0.0 0.0 0.00 0.00 0.00 977.2
20260502224447 36 0.0 0.0 0.00 0.00 0.00 977.0
20260502223446 36 0.0 0.0 0.00 0.00 0.00 977.2
20260502222446 36 0.0 0.0 0.00 0.00 0.00 977.1
20260502221446 37 0.0 0.0 0.00 0.00 0.00 977.0
20260502220445 37 0.0 0.0 0.00 0.00 0.00 977.0
20260502215445 37 0.0 0.0 0.00 0.00 0.00 977.0
20260502214445 38 0.0 0.0 0.00 0.00 0.00 976.9
20260502213445 38 0.0 0.0 0.00 0.00 0.00 976.8
20260502212444 38 0.0 0.0 0.00 0.00 0.00 976.6
20260502211444 39 0.0 0.0 0.00 0.00 0.00 976.6
20260502210444 39 0.0 0.0 0.00 0.00 0.00 976.4
20260502205444 39 0.0 0.0 0.00 0.00 0.00 976.5
20260502204443 40 0.0 0.0 0.00 0.00 0.00 976.5
20260502203443 40 0.0 0.0 0.00 0.00 0.00 976.4
20260502202443 40 0.0 0.0 0.00 0.00 0.00 976.4
20260502201443 40 0.0 0.0 0.00 0.00 0.00 976.2
20260502200443 41 0.0 0.0 0.00 0.00 0.00 976.3
20260502195442 41 0.0 0.0 0.00 0.00 0.00 976.1